Powrót do katalogu

CZ-3B DEB

AktywnyHEO
NORAD 41119·DEBRIS·🇨🇳 China

Wystrzelony Dec 19, 2011 z Xichang Satellite Launch Center

Loading…

Następne Przeloty (najbliższe 24 godziny)

TLE

Starzejące sięSource: Space-Track

Epoka: Sep 3, 2026, 11:13 UTC

1 41119U 11077AJ  26246.46782685 -.00000066  00000-0  00000+0 0  9990
2 41119  22.7700 343.6171 7280558 281.6941  11.6134  1.69772271 72330

Śledź CZ-3B DEB w czasie rzeczywistym z AllMySat

Download on the App Store